Wind_Speed
8 8 8 8 8 8 8 8 8 8 8 8 8 8 9 9 9 8 8 8 9 8 9 9 10 10 10 10 10 10 10 10 10 11 11 11 12 12 13 13 13 13 14
9 9 9 9 9 9 9 8 8 9 9 9 9 9 9 9 9 9 9 10 10 10 10 10 10 10 10 10 10 10 10 11 11 11 11 12 13 13 13 13 13 13 14
10 10 10 10 10 10 10 10 10 10 10 10 10 10 10 10 11 10 10 11 11 11 11 11 11 10 10 10 10 11 11 11 11 12 12 12 13 13 13 13 14 13 14
12 12 11 11 12 12 12 12 12 11 11 11 12 12 11 12 12 12 12 12 12 11 12 12 11 11 10 11 11 11 12 12 12 12 12 12 13 13 13 14 14 14 14
13 13 13 13 14 14 14 13 13 13 12 13 13 13 13 13 13 13 13 13 13 12 12 12 12 12 11 11 12 12 12 12 12 13 13 14 14 14 14 14 14 14 14
15 15 15 15 15 15 15 15 15 15 14 14 15 15 15 15 14 14 14 14 14 13 13 13 12 12 12 12 12 12 12 12 13 14 14 15 15 15 16 16 15 15 15
16 16 16 16 16 17 17 17 17 16 16 16 16 16 16 16 16 15 15 15 14 14 14 14 14 13 13 13 12 12 13 14 14 15 15 16 16 17 17 17 17 17 16
17 17 18 18 18 18 19 19 18 18 17 17 16 16 16 16 16 16 16 16 16 15 15 15 15 15 14 14 14 14 15 15 15 15 16 17 17 18 18 18 18 18 17
18 18 19 19 19 19 19 19 19 19 19 18 18 18 18 17 17 17 17 17 17 17 17 16 16 16 16 16 16 16 16 16 16 16 17 17 17 17 18 18 18 18 18
19 19 19 19 19 19 19 19 19 19 19 18 18 19 18 18 18 18 18 18 18 18 18 18 18 17 17 18 18 18 18 18 18 18 18 18 18 18 18 18 18 18 18
19 19 19 19 19 19 19 19 19 19 19 19 19 19 19 19 19 19 19 19 19 18 18 18 18 18 18 18 19 19 19 19 19 19 19 19 19 19 19 20 20 19 20
19 18 19 19 19 20 20 20 20 20 20 20 20 19 19 19 19 19 19 19 19 19 19 20 20 19 19 19 19 20 20 19 20 19 19 19 20 20 20 20 20 20 20
19 19 19 19 20 20 20 20 20 20 21 21 21 20 20 20 20 20 19 19 20 20 20 20 20 20 19 20 20 20 19 20 20 20 20 20 20 21 21 21 22 22 22
20 20 20 20 20 20 21 21 21 22 22 22 22 22 21 21 21 20 20 21 21 20 21 20 20 19 20 20 20 20 19 19 20 20 20 20 21 21 22 22 22 23 23
20 21 21 21 21 21 22 22 22 22 22 22 23 23 22 22 22 22 21 21 21 21 21 20 20 20 20 20 20 20 19 19 20 20 20 21 21 21 22 22 22 22 23
21 22 22 22 22 22 22 22 23 23 22 22 22 23 23 23 23 23 22 22 22 22 22 21 21 20 20 20 20 20 19 20 20 21 21 21 21 20 21 21 22 22 22
22 22 22 23 23 23 23 23 23 23 23 23 23 23 23 23 23 23 23 23 22 22 22 22 21 21 21 20 20 20 20 20 21 21 20 21 21 21 21 21 22 22 23
23 23 22 23 24 24 23 23 23 23 23 23 23 24 24 24 24 24 24 25 24 23 23 23 23 22 21 21 21 21 21 21 21 21 21 21 21 21 21 21 22 22 23
23 23 24 24 24 24 24 24 24 23 23 23 23 23 23 23 23 23 24 24 24 24 23 23 23 23 23 23 23 23 22 22 22 22 22 22 22 21 21 22 22 23 23
25 24 24 25 25 25 25 25 25 24 24 24 24 23 23 23 23 23 24 24 24 25 24 23 23 22 22 23 24 24 23 23 22 23 23 23 22 22 22 22 23 23 23
25 25 25 25 25 25 25 26 26 26 25 25 24 24 24 24 24 24 24 24 24 24 24 24 24 24 24 24 25 25 24 24 24 25 25 24 23 23 23 23 24 24 24
25 25 26 26 26 26 26 26 26 25 25 24 24 24 24 24 24 24 24 25 25 25 25 25 25 25 25 25 25 26 25 25 25 25 25 25 25 24 24 25 25 26 26
26 26 26 26 26 26 26 26 25 25 25 25 24 24 24 24 24 24 25 25 26 26 25 25 25 26 26 26 26 26 26 26 26 26 26 26 26 25 26 26 26 27 27
27 27 27 27 26 26 26 26 26 26 26 25 25 24 24 24 25 24 25 25 26 26 25 26 26 26 27 27 27 27 28 28 27 27 27 27 27 27 27 28 28 28 28
27 27 27 27 27 27 28 28 27 26 26 26 26 26 26 25 25 25 25 25 25 26 26 26 27 27 27 28 28 29 29 29 29 29 28 29 29 29 29 30 30 29 29
28 28 28 28 27 27 28 28 27 26 26 27 26 26 26 26 26 26 26 26 27 27 27 27 27 27 27 27 28 29 29 29 29 29 29 30 30 30 30 31 31 30 30
Wind_Direction
268 268 269 271 274 277 278 280 282 284 288 292 293 293 296 299 300 299 298 298 299 300 298 295 293 287 286 280 274 271 269 265 261 259 257 254 253 255 255 256 256 256 255
270 269 267 268 269 272 274 274 277 281 284 288 290 289 291 293 295 297 297 297 297 297 297 296 296 295 291 283 276 270 270 269 267 263 256 255 253 252 253 256 254 256 257
271 270 268 268 270 273 273 272 274 278 282 285 287 287 289 292 294 294 293 295 296 294 295 296 293 291 290 288 284 274 270 270 270 266 261 257 251 250 252 254 256 256 259
269 268 268 269 270 272 276 278 277 277 280 283 286 287 288 290 291 293 293 293 294 295 295 295 290 287 287 285 285 285 281 275 273 272 267 262 259 256 255 258 260 259 260
271 270 271 272 272 273 276 280 281 280 280 282 284 285 287 289 290 291 292 291 291 292 293 293 289 285 284 281 281 283 282 277 275 274 270 265 264 261 261 261 261 262 261
273 272 273 273 274 275 276 279 280 279 279 280 283 285 286 287 287 288 289 289 289 289 291 292 290 285 285 283 280 280 278 276 274 272 270 268 266 265 264 264 262 263 262
274 274 274 276 276 277 277 277 279 278 278 280 281 283 285 286 285 285 286 286 286 287 288 289 289 285 284 284 282 280 278 276 274 273 269 267 266 266 266 265 263 262 261
275 275 274 275 277 277 276 277 279 280 279 278 278 280 281 282 282 282 283 283 283 284 285 285 285 282 282 281 280 280 279 278 275 275 272 270 268 267 265 265 263 261 260
276 275 275 275 276 277 277 278 278 279 279 278 277 277 278 280 280 280 279 280 280 280 281 282 283 281 278 279 279 279 280 278 275 274 273 272 270 268 266 264 263 262 260
277 277 277 278 279 279 279 280 280 280 280 280 278 277 277 277 278 278 278 278 279 279 279 280 281 281 279 278 279 279 278 277 276 275 274 271 269 268 266 263 262 262 261
278 278 279 278 279 280 280 280 281 281 280 280 280 279 278 277 277 277 277 279 280 280 279 280 279 280 279 278 279 279 278 278 277 275 273 271 268 266 265 264 262 262 261
278 279 279 279 278 279 280 279 279 278 278 279 280 279 277 276 276 277 277 278 280 279 280 280 278 277 278 279 279 278 276 276 276 274 272 271 268 266 265 263 262 261 260
278 280 280 281 280 279 279 279 278 278 277 277 277 277 277 277 276 276 277 277 278 279 281 282 279 277 278 279 279 279 276 275 275 274 271 271 269 268 266 264 262 260 259
277 280 282 282 283 282 281 281 280 279 280 278 277 276 277 277 276 275 275 275 276 278 280 282 279 277 277 277 278 279 277 276 275 274 272 272 270 269 267 266 265 263 260
278 281 282 284 284 283 283 282 282 281 281 279 277 276 277 277 275 274 274 274 274 276 278 280 279 279 278 277 277 278 277 276 275 274 273 273 272 272 269 266 265 265 262
279 280 281 282 283 283 283 283 282 282 281 280 278 276 276 276 275 274 273 274 274 275 276 277 278 279 277 275 277 277 277 277 277 276 274 272 271 273 272 270 269 266 264
278 280 281 282 283 283 284 284 284 282 280 280 278 275 275 275 274 273 273 274 274 273 275 276 276 275 275 276 275 277 277 277 277 276 274 273 271 271 273 272 270 268 265
278 278 280 281 282 283 284 284 285 283 281 280 278 277 275 275 275 273 273 274 275 274 274 273 273 273 273 274 275 275 276 276 277 275 274 273 272 270 271 272 272 270 268
276 277 279 281 281 282 282 283 283 283 282 279 278 277 277 277 275 275 274 275 274 275 274 273 272 272 272 272 272 273 274 274 274 275 275 274 273 272 271 273 274 272 270
277 277 278 279 279 279 280 281 281 282 281 279 277 278 277 276 275 274 274 274 274 274 273 273 273 272 271 271 271 271 272 272 273 275 275 273 272 272 272 272 273 273 273
277 277 278 279 279 279 279 280 280 281 281 279 277 277 277 276 274 273 273 274 274 274 273 273 272 272 273 271 270 271 271 271 273 276 275 273 271 271 271 273 275 274 274
280 279 280 281 280 279 278 279 281 281 279 278 278 277 277 276 275 273 273 273 273 274 273 272 271 272 274 273 271 270 270 271 272 272 273 272 271 270 272 274 276 276 275
281 281 280 281 280 279 279 280 281 281 280 278 278 277 275 275 275 275 274 274 274 273 272 272 272 273 274 274 272 272 273 273 272 271 271 271 272 272 273 274 275 277 277
281 281 280 280 280 280 281 281 281 281 280 279 277 276 275 274 275 276 276 276 275 272 271 272 272 273 274 274 271 271 272 274 273 272 271 272 273 272 273 275 276 277 276
280 280 281 281 280 279 280 281 281 280 278 277 276 276 275 274 274 276 276 277 277 274 272 272 272 273 274 273 271 271 272 274 273 272 272 272 272 273 273 275 276 276 277
279 280 280 280 278 277 278 279 279 278 279 279 277 276 276 275 274 276 277 277 277 274 273 274 274 274 275 275 274 273 273 272 272 272 272 273 273 273 274 274 275 276 276
Height
5837 5836 5836 5836 5835 5835 5835 5834 5834 5834 5833 5833 5832 5831 5831 5830 5829 5828 5828 5827 5826 5825 5824 5823 5822 5821 5821 5820 5820 5820 5819 5819 5820 5820 5821 5821 5822 5822 5823 5823 5823 5824 5824
5834 5834 5834 5834 5833 5833 5832 5832 5832 5832 5831 5830 5830 5829 5829 5828 5827 5826 5825 5824 5823 5823 5822 5821 5820 5819 5818 5818 5817 5817 5817 5817 5817 5817 5818 5818 5819 5819 5819 5820 5820 5820 5821
5832 5832 5832 5831 5831 5830 5830 5829 5829 5829 5828 5828 5827 5827 5826 5825 5824 5823 5823 5822 5821 5820 5819 5818 5817 5817 5816 5815 5815 5815 5814 5814 5814 5814 5815 5815 5816 5816 5816 5816 5817 5817 5817
5829 5829 5829 5828 5828 5827 5827 5826 5826 5825 5825 5825 5824 5824 5823 5822 5821 5820 5819 5819 5818 5817 5816 5815 5815 5814 5813 5813 5812 5812 5811 5811 5811 5811 5811 5812 5812 5813 5814 5814 5814 5814 5814
5826 5826 5825 5825 5824 5824 5823 5823 5822 5822 5821 5821 5821 5820 5820 5819 5818 5817 5816 5815 5815 5814 5813 5812 5812 5811 5810 5810 5810 5809 5809 5808 5808 5808 5808 5808 5809 5809 5810 5810 5811 5811 5811
5823 5822 5822 5821 5821 5820 5820 5819 5819 5818 5818 5817 5817 5816 5816 5815 5814 5814 5813 5812 5811 5810 5809 5809 5808 5807 5807 5807 5806 5806 5806 5805 5805 5805 5805 5805 5805 5805 5806 5806 5807 5807 5807
5819 5818 5818 5817 5817 5816 5816 5815 5815 5814 5814 5813 5812 5812 5811 5811 5810 5810 5809 5808 5807 5806 5806 5805 5804 5804 5803 5803 5803 5802 5802 5802 5801 5801 5801 5801 5801 5801 5801 5802 5802 5803 5804
5815 5814 5814 5813 5812 5812 5811 5811 5810 5809 5809 5808 5808 5808 5807 5806 5806 5805 5805 5804 5803 5802 5802 5801 5800 5799 5799 5799 5799 5798 5798 5797 5797 5797 5797 5797 5796 5797 5797 5797 5798 5798 5799
5810 5809 5809 5808 5808 5807 5806 5806 5805 5804 5804 5803 5803 5803 5802 5802 5801 5801 5800 5799 5798 5798 5797 5796 5796 5795 5794 5794 5794 5794 5793 5793 5792 5792 5792 5792 5792 5792 5792 5792 5793 5794 5794
5805 5804 5804 5803 5803 5802 5801 5801 5800 5799 5799 5798 5798 5798 5797 5797 5796 5796 5795 5794 5793 5793 5792 5792 5791 5790 5790 5789 5789 5789 5788 5788 5787 5787 5787 5787 5787 5787 5787 5787 5787 5788 5789
5800 5799 5798 5798 5797 5796 5796 5795 5794 5794 5793 5793 5792 5792 5792 5791 5791 5790 5790 5789 5788 5787 5787 5786 5786 5785 5784 5784 5784 5783 5783 5783 5782 5782 5782 5781 5781 5781 5781 5781 5782 5782 5783
5794 5793 5793 5792 5791 5791 5790 5790 5789 5788 5788 5787 5787 5786 5786 5785 5785 5785 5784 5783 5783 5782 5781 5781 5780 5780 5779 5779 5778 5778 5777 5777 5776 5776 5776 5776 5776 5776 5775 5776 5776 5776 5777
5789 5788 5787 5786 5786 5785 5784 5784 5783 5783 5782 5781 5781 5780 5780 5779 5779 5779 5778 5778 5777 5777 5776 5775 5775 5774 5774 5773 5773 5772 5772 5771 5771 5770 5770 5770 5770 5770 5769 5770 5770 5770 5771
5783 5783 5782 5781 5780 5779 5778 5778 5777 5777 5776 5775 5774 5774 5774 5773 5773 5773 5772 5772 5771 5771 5770 5770 5769 5768 5768 5767 5767 5766 5766 5765 5765 5764 5764 5764 5764 5764 5763 5763 5763 5764 5764
5777 5777 5776 5775 5774 5773 5772 5771 5771 5770 5769 5768 5768 5768 5767 5767 5766 5766 5766 5766 5765 5765 5764 5764 5763 5763 5762 5761 5761 5761 5760 5759 5759 5759 5758 5758 5758 5757 5757 5757 5757 5757 5758
5772 5771 5770 5769 5768 5767 5766 5765 5764 5763 5762 5762 5761 5761 5760 5760 5760 5760 5759 5759 5759 5758 5758 5758 5757 5757 5756 5756 5755 5755 5754 5754 5753 5753 5752 5752 5752 5751 5751 5751 5750 5750 5751
5766 5765 5764 5762 5761 5760 5759 5758 5757 5756 5755 5755 5754 5754 5753 5753 5753 5753 5753 5752 5752 5752 5752 5751 5751 5751 5750 5750 5749 5749 5748 5748 5747 5747 5746 5746 5745 5745 5745 5745 5744 5744 5744
5759 5758 5757 5756 5755 5753 5752 5751 5750 5749 5748 5748 5747 5747 5746 5746 5745 5745 5746 5746 5745 5745 5745 5745 5744 5744 5744 5743 5743 5742 5742 5742 5741 5741 5740 5740 5739 5739 5739 5739 5738 5738 5738
5752 5751 5750 5749 5748 5747 5746 5745 5744 5742 5742 5741 5740 5740 5739 5739 5738 5738 5738 5738 5738 5738 5738 5737 5737 5737 5737 5737 5736 5736 5735 5735 5735 5734 5734 5733 5733 5733 5732 5732 5732 5732 5732
5745 5744 5743 5742 5741 5740 5739 5738 5737 5736 5735 5734 5733 5732 5732 5731 5731 5731 5731 5731 5731 5731 5730 5730 5730 5730 5730 5730 5729 5729 5728 5728 5728 5727 5727 5727 5726 5726 5726 5726 5726 5725 5725
5737 5736 5735 5734 5733 5732 5731 5730 5729 5729 5728 5727 5726 5725 5725 5724 5724 5724 5724 5724 5723 5723 5723 5723 5723 5723 5723 5722 5722 5721 5721 5721 5721 5720 5720 5719 5719 5719 5719 5718 5718 5718 5718
5730 5728 5727 5726 5725 5724 5723 5723 5722 5721 5720 5719 5719 5718 5717 5717 5716 5716 5716 5716 5716 5716 5715 5715 5715 5715 5715 5714 5714 5714 5713 5713 5713 5713 5712 5712 5712 5711 5711 5711 5710 5710 5710
5722 5721 5720 5719 5718 5717 5716 5715 5714 5713 5712 5712 5711 5711 5710 5710 5709 5709 5709 5708 5708 5708 5707 5707 5707 5707 5707 5706 5706 5705 5705 5705 5705 5705 5704 5704 5704 5704 5703 5703 5703 5702 5702
5713 5712 5712 5711 5710 5709 5708 5707 5706 5705 5704 5704 5703 5703 5702 5702 5702 5701 5701 5700 5700 5700 5700 5699 5699 5699 5699 5698 5698 5697 5697 5696 5696 5696 5696 5696 5696 5695 5695 5695 5694 5693 5693
5705 5704 5703 5703 5702 5701 5700 5699 5698 5697 5696 5696 5695 5695 5694 5694 5694 5693 5693 5692 5692 5692 5692 5691 5691 5691 5690 5689 5689 5688 5688 5688 5688 5687 5687 5687 5687 5687 5686 5686 5685 5685 5684
5697 5696 5695 5694 5693 5692 5692 5691 5690 5689 5688 5687 5686 5686 5685 5685 5685 5685 5684 5684 5684 5683 5683 5683 5682 5682 5681 5680 5680 5679 5679 5679 5678 5678 5678 5678 5678 5678 5677 5676 5676 5675 5675